When you browse on this site, cookies collect data to enhance your experience and personalize the content and advertising you see.
Visit our Privacy Policy to learn more. By continuing to use the site, you agree to this use of cookies and data.
  • In Romania
  • List of Countries
  • For 7 days
  • Water Temperature
  • Satellite Maps
  • Weather Map
  • Weather Widgets
  • user-avatar
    Login

    Hourly Weather Arnay-le-Duc

    Today, 18 February, Monday

    Time Temperature Precipitation Wind Pressure Humidity
    00:00 +5°C° 0 mm 2 mps 731 mmHg 85%
    01:00 +4°C° 0 mm 2 mps 731 mmHg 87%
    02:00 +4°C° 0 mm 2 mps 730 mmHg 88%
    03:00 +3°C° 0 mm 2 mps 730 mmHg 90%
    04:00 +3°C° 0 mm 2 mps 730 mmHg 91%
    05:00 +2°C° 0 mm 2 mps 730 mmHg 91%
    06:00 +2°C° 0 mm 2 mps 730 mmHg 93%
    07:00 +3°C° 0 mm 2 mps 730 mmHg 87%
    08:00 +4°C° 0 mm 2 mps 730 mmHg 81%
    09:00 +5°C° 0 mm 3 mps 730 mmHg 76%
    10:00 +7°C° 0 mm 3 mps 730 mmHg 69%
    11:00 +9°C° 0 mm 3 mps 729 mmHg 63%
    12:00 +11°C° 0 mm 3 mps 729 mmHg 57%
    13:00 +11°C° 0 mm 3 mps 729 mmHg 57%
    14:00 +12°C° 0 mm 3 mps 729 mmHg 56%
    15:00 +12°C° 0 mm 3 mps 728 mmHg 56%
    16:00 +10°C° 0 mm 2 mps 729 mmHg 64%
    17:00 +8°C° 0 mm 2 mps 729 mmHg 71%
    18:00 +8°C° 0 mm 1 mps 729 mmHg 79%
    19:00 +7°C° 0 mm 1 mps 729 mmHg 81%
    20:00 +6°C° 0 mm 2 mps 729 mmHg 84%
    21:00 +5°C° 0 mm 2 mps 729 mmHg 86%
    22:00 +5°C° 0 mm 2 mps 729 mmHg 88%
    23:00 +4°C° 0 mm 2 mps 730 mmHg 90%

    Tomorrow, 19 February, Tuesday

    Time Temperature Precipitation Wind Pressure Humidity
    00:00 +4°C° 0 mm 2 mps 730 mmHg 92%
    01:00 +5°C° 0 mm 1 mps 730 mmHg 93%
    02:00 +5°C° 0 mm 1 mps 730 mmHg 93%
    03:00 +4°C° 0 mm 1 mps 730 mmHg 93%
    04:00 +4°C° 0 mm 1 mps 730 mmHg 93%
    05:00 +4°C° 0 mm 1 mps 730 mmHg 93%
    06:00 +4°C° 0 mm 1 mps 730 mmHg 93%
    07:00 +5°C° 0 mm 1 mps 730 mmHg 89%
    08:00 +6°C° 0 mm 1 mps 731 mmHg 84%
    09:00 +7°C° 0 mm 2 mps 731 mmHg 80%
    10:00 +8°C° 0 mm 2 mps 731 mmHg 77%
    11:00 +9°C° 0 mm 2 mps 731 mmHg 75%
    12:00 +10°C° 0 mm 2 mps 731 mmHg 72%
    13:00 +10°C° 0 mm 2 mps 731 mmHg 73%
    14:00 +11°C° 0 mm 1 mps 731 mmHg 73%
    15:00 +11°C° 0 mm 1 mps 731 mmHg 74%
    16:00 +10°C° 0 mm 1 mps 731 mmHg 80%
    17:00 +9°C° 0 mm 1 mps 731 mmHg 86%
    18:00 +8°C° 0 mm 1 mps 731 mmHg 91%
    19:00 +7°C° 0 mm 1 mps 731 mmHg 92%
    20:00 +5°C° 0 mm 0 mps 731 mmHg 94%
    21:00 +4°C° 0 mm 0 mps 731 mmHg 95%
    22:00 +4°C° 0 mm 0 mps 732 mmHg 95%
    23:00 +4°C° 0 mm 0 mps 732 mmHg 95%

    Day after tomorrow, 20 February, Wednesday

    Time Temperature Precipitation Wind Pressure Humidity
    00:00 +4°C° 0 mm 0 mps 732 mmHg 95%
    01:00 +4°C° 0 mm 0 mps 732 mmHg 95%
    02:00 +3°C° 0 mm 0 mps 732 mmHg 95%
    03:00 +3°C° 0 mm 0 mps 731 mmHg 95%
    04:00 +3°C° 0 mm 0 mps 732 mmHg 95%
    05:00 +3°C° 0 mm 0 mps 732 mmHg 95%
    06:00 +3°C° 0 mm 0 mps 732 mmHg 96%
    07:00 +4°C° 0 mm 0 mps 732 mmHg 92%
    08:00 +7°C° 0 mm 1 mps 733 mmHg 88%
    09:00 +8°C° 0 mm 1 mps 733 mmHg 85%
    10:00 +9°C° 0 mm 1 mps 733 mmHg 77%
    11:00 +11°C° 0 mm 1 mps 733 mmHg 69%
    12:00 +12°C° 0 mm 1 mps 733 mmHg 61%
    13:00 +13°C° 0 mm 1 mps 733 mmHg 60%
    14:00 +13°C° 0 mm 1 mps 733 mmHg 59%
    15:00 +13°C° 0 mm 1 mps 733 mmHg 58%
    16:00 +11°C° 0 mm 1 mps 733 mmHg 66%
    17:00 +9°C° 0 mm 1 mps 733 mmHg 74%
    18:00 +6°C° 0 mm 0 mps 733 mmHg 82%
    19:00 +6°C° 0 mm 0 mps 733 mmHg 83%
    20:00 +6°C° 0 mm 0 mps 734 mmHg 84%
    21:00 +5°C° 0 mm 0 mps 734 mmHg 85%
    22:00 +5°C° 0 mm 0 mps 734 mmHg 86%
    23:00 +5°C° 0 mm 0 mps 734 mmHg 86%

    21 February, Thursday

    Time Temperature Precipitation Wind Pressure Humidity
    00:00 +5°C° 0 mm 1 mps 735 mmHg 86%
    01:00 +4°C° 0 mm 0 mps 735 mmHg 86%
    02:00 +4°C° 0 mm 0 mps 735 mmHg 86%
    03:00 +4°C° 0 mm 0 mps 735 mmHg 86%
    04:00 +4°C° 0 mm 0 mps 735 mmHg 86%
    05:00 +4°C° 0 mm 0 mps 735 mmHg 86%
    06:00 +3°C° 0 mm 0 mps 736 mmHg 86%
    07:00 +5°C° 0 mm 0 mps 736 mmHg 80%
    08:00 +8°C° 0 mm 1 mps 736 mmHg 74%
    09:00 +9°C° 0 mm 1 mps 737 mmHg 68%
    10:00 +11°C° 0 mm 1 mps 737 mmHg 64%
    11:00 +13°C° 0 mm 1 mps 737 mmHg 59%
    12:00 +14°C° 0 mm 1 mps 737 mmHg 55%
    13:00 +14°C° 0 mm 1 mps 737 mmHg 54%
    14:00 +13°C° 0 mm 0 mps 737 mmHg 54%
    15:00 +14°C° 0 mm 0 mps 737 mmHg 54%
    16:00 +12°C° 0 mm 0 mps 737 mmHg 62%
    17:00 +10°C° 0 mm 0 mps 737 mmHg 71%
    18:00 +7°C° 0 mm 0 mps 737 mmHg 80%
    19:00 +7°C° 0 mm 0 mps 738 mmHg 81%
    20:00 +7°C° 0 mm 0 mps 738 mmHg 82%
    21:00 +6°C° 0 mm 0 mps 739 mmHg 83%
    22:00 +6°C° 0 mm 0 mps 739 mmHg 84%
    23:00 +6°C° 0 mm 0 mps 739 mmHg 85%

    22 February, Friday

    Time Temperature Precipitation Wind Pressure Humidity
    00:00 +5°C° 0 mm 0 mps 740 mmHg 85%
    01:00 +6°C° 0 mm 1 mps 740 mmHg 86%
    02:00 +6°C° 0 mm 1 mps 740 mmHg 87%
    03:00 +6°C° 0 mm 1 mps 740 mmHg 87%
    04:00 +6°C° 0 mm 1 mps 740 mmHg 88%
    05:00 +6°C° 0 mm 1 mps 740 mmHg 89%
    06:00 +5°C° 0 mm 1 mps 740 mmHg 90%
    07:00 +7°C° 0 mm 1 mps 740 mmHg 85%
    08:00 +7°C° 0 mm 2 mps 741 mmHg 80%
    09:00 +9°C° 0 mm 2 mps 741 mmHg 75%
    10:00 +12°C° 0 mm 2 mps 741 mmHg 69%
    11:00 +13°C° 0 mm 2 mps 741 mmHg 63%
    12:00 +14°C° 0 mm 3 mps 741 mmHg 57%
    13:00 +14°C° 0 mm 3 mps 740 mmHg 57%
    14:00 +14°C° 0 mm 3 mps 740 mmHg 57%
    15:00 +14°C° 0 mm 3 mps 740 mmHg 57%
    16:00 +12°C° 0 mm 3 mps 740 mmHg 65%
    17:00 +10°C° 0 mm 3 mps 740 mmHg 73%
    18:00 +8°C° 0 mm 2 mps 740 mmHg 82%
    19:00 +8°C° 0 mm 2 mps 740 mmHg 80%
    20:00 +8°C° 0 mm 2 mps 740 mmHg 77%
    21:00 +8°C° 0 mm 3 mps 740 mmHg 75%
    22:00 +8°C° 0 mm 3 mps 740 mmHg 75%
    23:00 +8°C° 0 mm 3 mps 740 mmHg 74%

    23 February, Saturday

    Time Temperature Precipitation Wind Pressure Humidity
    00:00 +8°C° 0 mm 3 mps 740 mmHg 74%
    01:00 +7°C° 0 mm 3 mps 740 mmHg 75%
    02:00 +7°C° 0 mm 3 mps 739 mmHg 77%
    03:00 +7°C° 0 mm 3 mps 739 mmHg 79%
    04:00 +5°C° 0 mm 3 mps 739 mmHg 83%
    05:00 +6°C° 0 mm 2 mps 739 mmHg 86%
    06:00 +5°C° 0 mm 2 mps 739 mmHg 90%
    07:00 +6°C° 0 mm 2 mps 739 mmHg 86%
    08:00 +7°C° 0 mm 2 mps 740 mmHg 81%
    09:00 +10°C° 0 mm 1 mps 740 mmHg 77%
    10:00 +10°C° 0 mm 2 mps 740 mmHg 72%
    11:00 +13°C° 0 mm 2 mps 740 mmHg 66%
    12:00 +14°C° 0 mm 2 mps 740 mmHg 61%
    13:00 +15°C° 0 mm 2 mps 739 mmHg 61%
    14:00 +15°C° 0 mm 2 mps 739 mmHg 61%
    15:00 +15°C° 0 mm 2 mps 739 mmHg 61%
    16:00 +13°C° 0 mm 2 mps 739 mmHg 68%
    17:00 +11°C° 0 mm 1 mps 739 mmHg 75%
    18:00 +10°C° 0 mm 1 mps 739 mmHg 83%
    19:00 +9°C° 0 mm 1 mps 739 mmHg 84%
    20:00 +9°C° 0 mm 1 mps 739 mmHg 85%
    21:00 +8°C° 0 mm 1 mps 739 mmHg 85%
    22:00 +8°C° 0 mm 1 mps 739 mmHg 85%
    23:00 +8°C° 0 mm 1 mps 739 mmHg 85%
    Show more